CAPE
0 0 0 0 0 0 0 0 0 0 0 0 0 0 0 131 265 321 407 294 243 252 277 380 441 452 436 474 405 398 340 266 210 190 149 232 409 482 568 432 580 633 703 855
0 0 0 0 0 0 0 0 0 0 0 0 0 0 0 100 110 183 384 376 297 322 324 414 462 383 338 394 340 349 328 308 259 197 273 381 388 343 694 516 587 689 704 880
0 0 0 0 0 0 0 0 0 0 0 0 0 0 0 137 194 239 269 371 374 350 351 392 424 393 339 329 281 268 317 243 338 280 210 298 409 461 611 506 561 676 731 820
0 0 0 0 0 0 0 0 0 0 0 0 0 0 0 6 96 164 128 151 266 260 330 300 372 325 379 333 235 204 254 303 304 361 303 294 386 524 674 615 517 514 787 768
0 0 0 0 0 0 0 0 0 0 0 0 0 0 0 0 10 94 179 184 134 106 116 68 51 286 270 363 256 163 194 277 269 358 435 411 437 419 382 439 318 474 691 903
0 0 0 0 0 0 0 0 0 0 0 0 0 0 0 0 0 21 120 193 201 130 68 55 6 28 168 268 209 138 210 268 288 310 417 440 433 321 293 230 372 371 618 778
0 0 0 0 0 0 0 0 0 0 0 0 0 0 0 0 0 0 0 47 110 172 130 91 39 8 61 115 176 128 205 275 308 296 325 411 424 338 323 351 424 295 437 588
0 0 0 0 0 0 0 0 0 0 0 0 0 0 0 0 0 0 0 7 18 23 60 89 88 14 3 50 95 109 172 209 294 343 328 388 445 443 398 441 450 419 368 368
0 0 0 0 0 0 0 0 0 0 0 0 0 0 0 0 0 0 0 0 0 0 0 11 32 39 2 12 75 74 149 149 221 343 341 408 484 513 473 493 489 465 512 438
0 0 0 0 0 0 0 0 0 0 0 0 0 0 0 0 0 0 0 0 0 0 0 0 0 0 0 0 45 88 121 168 201 377 464 483 512 524 537 533 524 519 558 541
0 0 0 0 0 0 0 0 0 0 0 0 0 0 0 0 0 0 0 0 0 0 0 0 1 7 4 0 11 53 93 166 204 446 567 607 595 621 593 570 552 543 594 591
0 0 0 0 0 0 0 0 0 0 0 0 0 0 0 0 0 0 0 0 0 0 0 0 0 3 2 0 2 16 52 175 247 370 597 665 663 697 619 596 624 612 633 564
0 0 0 0 0 0 0 0 0 0 0 0 0 0 0 0 0 0 0 0 0 0 0 0 0 0 0 0 1 18 44 139 286 391 539 687 729 728 694 675 732 718 690 635
0 0 0 0 0 0 0 0 0 0 0 0 0 0 0 0 0 0 0 0 0 0 0 0 0 0 0 0 0 6 51 147 315 419 583 612 706 739 738 807 875 881 788 695
0 0 0 0 0 0 0 0 0 0 0 0 0 0 0 0 0 0 0 0 0 0 0 0 0 0 0 0 2 20 69 208 403 477 577 696 705 699 706 734 827 968 997 885
0 0 0 0 0 0 0 0 0 0 0 0 0 0 0 0 0 0 0 0 0 0 0 0 0 0 0 0 5 33 111 322 459 517 537 694 900 905 862 867 813 792 921 1057
0 0 0 0 0 0 0 0 0 0 0 0 0 0 0 0 0 0 0 0 0 0 0 0 0 0 0 0 4 95 165 400 578 579 646 767 892 989 1013 1033 1020 939 855 925
0 0 0 0 0 0 0 0 0 0 0 0 0 0 0 0 0 0 0 0 0 0 0 0 0 0 0 0 0 65 183 400 686 763 830 974 1061 1065 1174 1184 1199 1167 1092 1023
0 0 0 0 0 0 0 0 0 0 0 0 0 0 0 0 0 0 0 0 0 0 0 0 0 0 0 0 0 34 203 413 799 965 1055 1159 1309 1269 1278 1355 1424 1469 1470 1356
0 0 0 0 0 0 0 0 0 0 0 0 0 0 0 0 0 0 0 0 0 0 0 0 0 0 0 0 0 13 167 391 673 1112 1195 1372 1406 1415 1379 1441 1541 1683 1731 1717
0 0 0 0 0 0 0 0 4 0 0 0 0 0 0 0 0 0 0 0 0 0 0 0 0 0 0 0 0 0 106 332 595 984 1344 1493 1621 1618 1579 1611 1693 1733 1838 1976
0 0 0 0 0 0 0 0 0 0 0 0 0 0 0 0 0 0 0 0 0 0 0 0 0 0 0 0 55 139 252 445 640 953 1356 1602 1750 1883 2014 2042 2001 1914 1992 2109
0 0 0 0 0 0 0 0 0 0 0 0 0 0 0 0 0 0 0 0 42 402 341 19 11 81 205 1 25 293 419 570 780 938 1160 1641 1850 2027 2230 2334 2353 2319 2349 2316
3 1 30 0 0 0 16 9 0 0 1 0 1 25 0 0 0 4 253 700 1169 1581 1363 1500 1074 1164 1475 1801 927 745 875 741 476 535 812 1111 1406 1937 2170 2282 2345 2461 2498 2487
0 0 0 0 0 8 19 0 0 48 40 23 101 281 575 244 855 1200 1372 1672 1881 2007 2121 2104 2034 1976 1880 1851 1998 2295 2566 1983 1124 884 725 834 1033 778 615 402 815 1465 297 1528
0 0 2 0 0 9 28 0 6 157 121 103 583 837 614 1122 1258 1308 1265 1271 1356 1422 1324 1298 1289 1179 1051 1064 1323 1431 1725 1966 1681 1440 1173 829 590 592 673 708 90 1 18 78
CIN
0 0 0 0 0 0 0 0 0 0 0 0 0 0 0 -242 -208 -203 -258 -286 -260 -255 -245 -224 -219 -210 -218 -214 -216 -208 -209 -204 -201 -180 -182 -154 -106 -85 -69 -69 -57 -55 -54 -55
0 0 0 0 0 0 0 0 0 0 0 0 0 0 0 -241 -229 -232 -275 -297 -253 -244 -239 -212 -215 -211 -245 -254 -279 -249 -236 -213 -222 -202 -174 -133 -118 -113 -54 -48 -47 -47 -51 -64
0 0 0 0 0 0 0 0 0 0 0 0 0 0 0 -250 -221 -221 -262 -280 -246 -225 -249 -269 -248 -268 -291 -289 -307 -298 -274 -262 -239 -224 -187 -173 -147 -135 -95 -106 -67 -43 -48 -59
0 0 0 0 0 0 0 0 0 0 0 0 0 0 0 -221 -244 -242 -236 -318 -308 -249 -252 -269 -272 -286 -301 -341 -354 -338 -301 -267 -248 -218 -184 -169 -132 -116 -101 -99 -93 -67 -46 -52
0 0 0 0 0 0 0 0 0 0 0 0 0 0 0 0 -245 -243 -262 -302 -346 -342 -298 -276 -334 -307 -335 -330 -350 -363 -328 -286 -283 -261 -212 -195 -164 -151 -157 -147 -139 -103 -66 -63
0 0 0 0 0 0 0 0 0 0 0 0 0 0 0 0 0 -241 -265 -307 -321 -356 -349 -338 -415 -418 -343 -341 -361 -394 -385 -339 -327 -310 -254 -226 -187 -189 -174 -192 -127 -119 -72 -62
0 0 0 0 0 0 0 0 0 0 0 0 0 0 0 0 0 0 -6 -250 -322 -375 -380 -373 -375 -489 -450 -411 -406 -438 -414 -377 -374 -347 -308 -275 -227 -203 -171 -158 -121 -136 -110 -93
0 0 0 0 0 0 0 0 0 0 0 0 0 0 0 0 0 0 0 -213 -303 -356 -369 -380 -370 -415 -148 -454 -452 -504 -480 -437 -422 -392 -349 -303 -256 -228 -204 -174 -137 -137 -138 -121
0 0 0 0 0 0 0 0 0 0 0 0 0 0 0 0 0 0 0 0 0 0 0 -340 -379 -407 -332 -504 -477 -498 -486 -477 -479 -417 -373 -328 -280 -246 -237 -199 -166 -163 -139 -143
0 0 0 0 0 0 0 0 0 0 0 0 0 0 0 0 0 0 0 0 0 0 0 0 0 0 0 0 -580 -526 -528 -473 -472 -455 -413 -335 -298 -282 -265 -240 -190 -198 -178 -168
0 0 0 0 0 0 0 0 0 0 0 0 0 0 0 0 0 0 0 0 0 0 0 0 -252 -439 -482 -290 -615 -562 -563 -546 -524 -515 -464 -394 -356 -328 -297 -261 -227 -238 -194 -197
0 0 0 0 0 0 0 0 0 0 0 0 0 0 0 0 0 0 0 0 0 0 0 0 0 -322 -443 0 -563 -604 -579 -578 -594 -573 -516 -473 -405 -379 -353 -307 -237 -266 -235 -237
0 0 0 0 0 0 0 0 0 0 0 0 0 0 0 0 0 0 0 0 0 0 0 0 0 0 0 0 -304 -585 -594 -550 -608 -626 -563 -520 -463 -427 -380 -333 -285 -286 -257 -282
0 0 0 0 0 0 0 0 0 0 0 0 0 0 0 0 0 0 0 0 0 0 0 0 0 0 0 0 0 -550 -569 -597 -644 -640 -618 -577 -541 -500 -424 -371 -332 -311 -302 -302
0 0 0 0 0 0 0 0 0 0 0 0 0 0 0 0 0 0 0 0 0 0 0 0 0 0 0 0 -454 -651 -620 -642 -647 -666 -628 -626 -626 -550 -491 -448 -378 -367 -332 -333
0 0 0 0 0 0 0 0 0 0 0 0 0 0 0 0 0 0 0 0 0 0 0 0 0 0 0 0 -410 -548 -588 -639 -657 -636 -617 -671 -639 -597 -528 -502 -440 -428 -408 -355
0 0 0 0 0 0 0 0 0 0 0 0 0 0 0 0 0 0 0 0 0 0 0 0 0 0 0 0 -447 -546 -542 -658 -667 -627 -615 -689 -690 -642 -578 -542 -491 -442 -453 -438
0 0 0 0 0 0 0 0 0 0 0 0 0 0 0 0 0 0 0 0 0 0 0 0 0 0 0 0 0 -519 -592 -641 -633 -658 -709 -733 -713 -648 -629 -555 -530 -491 -468 -462
0 0 0 0 0 0 0 0 0 0 0 0 0 0 0 0 0 0 0 0 0 0 0 0 0 0 0 0 0 -554 -522 -577 -645 -650 -691 -715 -728 -665 -631 -585 -563 -535 -479 -477
0 0 0 0 0 0 0 0 0 0 0 0 0 0 0 0 0 0 0 0 0 0 0 0 0 0 0 0 0 -495 -462 -533 -569 -611 -623 -710 -695 -657 -634 -621 -589 -534 -467 -424
0 0 0 0 0 0 0 0 -45 0 0 0 0 0 0 0 0 0 0 0 0 0 0 0 0 0 0 0 0 0 -455 -457 -454 -597 -676 -678 -676 -645 -624 -621 -580 -500 -438 -389
0 0 0 0 0 0 0 0 0 0 0 0 0 0 0 0 0 0 0 0 0 0 0 0 0 0 0 0 -461 -379 -350 -354 -597 -638 -652 -646 -648 -652 -589 -555 -524 -486 -455 -400
0 0 0 0 0 0 0 0 0 0 0 0 0 0 0 0 0 0 0 0 -437 -386 -366 -499 -458 -469 -532 -316 -718 -475 -615 -660 -600 -595 -616 -572 -538 -488 -428 -386 -370 -297 -268 -281
-49 -33 -25 -1 0 0 -55 -92 0 0 -62 0 0 -483 -1 0 0 -50 -388 -411 -410 -432 -435 -487 -458 -425 -438 -529 -601 -632 -627 -636 -608 -553 -570 -585 -536 -442 -332 -250 -217 -184 -145 -104
0 0 0 0 0 -7 -14 0 0 -300 -411 -505 -428 -480 -455 -471 -384 -391 -397 -377 -369 -389 -433 -437 -439 -436 -459 -493 -460 -450 -413 -468 -534 -604 -651 -642 -597 -666 -695 -756 -564 -294 -731 -280
0 0 0 0 0 -4 -15 0 -232 -295 -405 -420 -255 -311 -362 -381 -371 -403 -426 -452 -453 -450 -494 -498 -512 -540 -578 -570 -527 -523 -475 -427 -449 -509 -595 -656 -695 -647 -574 -514 -832 -65 -576 -789
Wind_Speed
7 17 28 20 26 20 19 20 14 11 18 22 29 27 21 12 21 23 29 27 29 30 33 35 37 37 36 34 31 31 30 32 32 33 32 31 30 30 28 26 24 21 19 17
6 29 19 23 26 28 31 34 40 29 28 29 30 31 13 15 24 31 30 29 31 31 32 35 36 35 35 35 33 31 31 31 32 32 31 30 26 28 26 24 23 21 17 14
24 14 13 16 16 19 31 41 27 28 24 27 26 33 22 23 28 38 38 32 34 34 31 33 35 37 36 35 34 32 31 30 30 30 28 25 14 21 21 22 20 18 15 13
12 18 13 15 26 18 24 33 25 26 26 35 22 35 28 25 29 28 38 36 34 37 36 32 32 34 36 36 34 33 31 29 29 28 26 26 25 24 24 20 17 16 15 13
12 12 14 22 21 14 27 21 25 26 31 35 36 31 18 8 23 31 39 39 36 37 37 34 32 34 35 35 33 32 31 32 30 28 28 26 24 24 22 17 17 14 14 12
19 16 13 14 12 13 17 17 23 27 32 45 38 18 19 19 28 36 44 43 38 37 38 36 31 33 35 34 34 33 31 32 30 28 28 25 23 19 18 16 13 14 13 12
21 20 18 16 15 13 16 16 20 29 29 46 22 34 41 18 21 33 36 44 40 37 37 37 36 30 31 32 31 29 29 30 27 26 25 23 21 19 21 20 15 14 14 11
25 28 23 18 16 17 15 19 14 18 32 41 29 47 41 42 36 38 38 41 43 41 38 39 37 35 31 30 29 25 24 26 24 22 23 22 18 16 17 19 16 14 13 14
28 36 22 22 19 16 20 20 18 25 24 34 31 46 41 33 39 43 39 40 38 35 35 37 36 35 32 28 28 28 27 27 24 25 24 23 18 16 15 15 16 13 13 14
29 31 30 22 24 24 21 18 19 19 25 34 36 39 42 34 49 46 44 37 36 24 31 30 36 36 33 29 28 27 28 27 25 26 26 25 23 19 15 13 16 13 13 13
31 31 26 21 27 25 25 24 23 20 24 27 37 38 34 38 28 38 47 43 37 21 21 27 37 33 31 27 24 28 27 26 27 25 26 25 23 21 17 17 17 14 13 14
30 33 42 32 26 30 32 31 31 31 30 41 41 40 22 28 17 36 42 48 46 28 17 22 37 32 26 26 24 25 26 25 27 25 25 25 24 20 19 21 20 14 15 15
29 35 40 40 41 32 33 35 31 33 35 29 22 38 38 35 27 35 37 34 37 30 26 12 21 15 19 22 23 21 22 27 24 22 25 24 24 20 20 21 20 17 15 17
26 32 36 43 38 37 41 41 35 34 38 47 52 49 35 33 37 38 37 44 42 34 34 26 16 15 17 20 25 21 24 23 20 21 23 25 26 24 23 22 21 21 19 18
28 37 37 37 41 41 45 50 51 47 39 51 47 52 50 40 39 37 33 40 36 44 39 25 17 16 16 19 21 21 22 19 19 19 23 29 26 26 25 22 22 22 22 22
33 40 38 45 41 45 50 50 50 52 50 50 58 52 37 49 42 38 41 36 27 25 34 25 12 16 17 18 19 20 20 19 19 21 29 26 23 24 27 25 23 22 25 22
40 41 42 51 43 47 60 51 51 48 46 45 57 46 38 36 30 21 37 34 17 19 23 18 13 13 16 17 19 19 21 18 19 22 22 22 21 24 27 24 23 25 26 22
41 41 42 50 44 61 43 44 39 52 54 48 46 41 36 39 47 47 34 38 47 37 18 19 22 17 16 17 17 19 15 20 23 23 21 19 19 22 20 21 25 25 24 26
42 41 47 51 55 59 54 39 36 37 52 51 46 42 40 36 42 41 37 33 25 29 32 19 20 18 17 17 17 17 16 16 20 24 22 22 21 20 20 21 24 25 23 24
41 44 47 47 56 64 39 36 38 36 53 35 42 44 42 38 47 43 35 30 27 25 25 24 22 21 18 16 17 18 18 18 21 23 24 23 22 22 22 23 23 22 22 25
38 45 58 60 58 54 42 36 33 50 54 42 39 42 45 40 41 36 31 29 28 23 25 22 15 14 18 18 16 19 20 21 20 19 21 21 23 23 23 23 24 23 24 24
43 45 52 54 61 73 42 39 42 42 43 45 44 46 45 40 32 32 28 23 22 20 19 18 16 16 17 15 14 13 14 12 19 18 20 21 22 22 23 21 24 25 25 25
45 47 46 48 56 39 39 53 45 40 41 44 48 47 45 41 38 30 26 20 18 16 15 15 13 14 15 17 17 17 19 21 22 23 28 30 29 25 27 26 25 26 23 27
35 35 45 49 54 52 43 38 40 38 38 40 41 42 40 35 28 21 16 13 12 12 9 9 10 12 15 17 18 21 24 24 24 25 26 23 22 24 28 29 29 30 30 30
36 38 42 46 52 43 45 41 36 32 31 31 25 22 23 19 18 16 13 8 6 5 5 6 8 10 12 14 16 19 21 20 22 23 23 22 21 19 20 22 27 26 28 34
23 37 41 48 40 42 39 39 34 28 25 21 14 8 7 9 10 9 8 6 4 4 5 5 8 11 13 15 17 19 20 19 19 19 20 19 18 17 18 18 20 18 20 23
Wind_Direction
199 183 193 241 247 254 263 263 268 288 279 274 241 219 194 164 166 167 172 169 175 182 178 179 180 180 180 178 175 174 173 178 177 181 184 190 192 197 198 192 181 178 172 165
215 196 191 251 250 248 251 251 231 265 267 265 263 242 171 169 178 179 176 176 177 184 179 183 181 179 181 181 180 178 179 177 179 181 184 189 183 192 188 185 183 182 170 162
187 288 195 194 234 233 251 207 257 262 274 266 275 259 277 188 245 203 199 187 188 188 179 181 181 185 184 185 184 183 182 180 180 181 179 180 171 229 178 184 183 178 171 165
223 190 178 198 192 199 204 247 260 263 268 258 275 258 270 191 189 185 197 193 189 193 193 185 182 184 187 190 187 187 185 183 183 181 180 183 185 186 187 184 182 183 178 170
226 213 203 188 196 212 249 261 258 263 265 263 257 267 281 262 186 193 197 198 193 192 193 189 186 188 190 189 188 187 187 188 187 185 186 186 187 188 186 182 178 173 170 164
255 274 218 204 250 214 249 268 264 266 264 243 236 207 213 188 194 202 210 205 198 194 196 195 189 190 192 190 190 189 189 190 188 188 189 188 188 184 183 179 175 173 171 168
254 247 272 260 227 252 229 242 257 262 258 226 259 229 217 226 193 195 194 204 203 197 197 197 196 189 189 188 187 187 189 192 190 191 191 192 192 189 189 186 181 177 174 169
246 256 233 254 238 235 228 229 240 240 260 252 258 227 240 214 234 210 209 207 212 209 202 201 199 195 191 191 189 188 190 195 196 198 198 197 200 197 193 188 185 183 181 177
251 255 268 245 253 225 248 220 223 269 277 264 264 239 249 250 244 223 214 216 207 200 200 201 200 198 196 195 194 192 191 192 191 195 197 197 202 204 202 197 192 193 187 183
257 259 254 247 248 246 246 248 243 240 204 214 259 253 246 252 236 233 231 207 206 195 198 199 202 201 199 199 197 195 194 195 193 191 193 195 198 202 210 212 201 202 199 192
255 256 258 244 240 231 244 243 255 253 260 206 233 248 254 240 249 211 217 211 206 196 198 200 204 201 199 197 198 196 195 195 195 194 194 194 196 198 205 205 205 209 213 200
258 256 249 251 258 253 244 248 246 252 258 254 253 232 256 200 220 252 245 236 235 262 205 203 206 201 199 199 196 199 197 198 197 195 194 196 196 198 200 201 204 219 208 213
263 253 251 249 252 254 252 249 246 249 261 241 238 235 222 240 262 250 253 253 252 259 268 260 266 241 222 209 205 210 206 201 201 199 197 198 198 200 203 203 203 212 219 208
265 255 251 249 251 253 253 253 252 245 247 240 222 240 262 260 247 241 251 246 257 263 265 271 266 252 228 212 201 210 206 206 208 206 201 200 199 199 201 202 202 203 208 217
263 253 256 257 256 256 255 253 252 253 251 249 255 228 244 252 248 226 216 248 260 248 260 276 269 249 223 214 209 208 207 221 223 220 207 202 200 199 200 200 201 202 204 207
263 256 257 256 260 257 256 255 254 254 256 259 251 257 264 239 256 260 249 263 274 266 263 278 260 259 238 225 214 208 211 214 212 209 202 202 204 202 202 202 203 204 204 211
260 256 256 253 258 261 254 253 254 256 257 258 253 262 264 261 262 252 251 268 246 229 221 258 252 241 225 228 221 216 204 215 208 204 206 206 210 206 205 206 206 207 209 216
255 254 255 253 256 250 255 257 264 255 255 257 262 265 261 261 259 260 266 263 241 239 254 253 267 261 226 224 227 214 225 209 208 212 219 220 218 212 213 216 213 214 216 217
248 252 253 250 249 253 256 259 258 265 257 256 258 264 265 263 263 264 264 267 268 276 277 257 264 261 250 226 223 230 232 228 224 215 224 230 224 226 233 227 216 219 228 227
247 247 248 249 248 246 253 255 264 266 259 270 259 257 259 260 255 262 270 267 270 271 274 274 272 272 255 231 232 232 230 233 230 223 220 227 231 234 235 232 227 228 239 245
248 246 244 246 250 250 253 263 269 250 254 268 269 261 257 257 257 268 274 268 267 268 273 276 273 269 259 255 235 235 245 245 231 230 241 241 239 231 233 241 255 251 252 256
251 248 246 246 248 246 251 258 254 264 271 267 268 261 259 259 259 260 274 275 269 266 274 273 275 279 272 268 257 255 249 241 268 264 260 256 250 252 246 246 256 256 261 250
252 250 253 248 250 259 254 252 263 271 274 271 264 262 260 257 258 259 266 273 267 264 273 278 279 276 282 282 278 273 281 282 280 278 274 274 277 280 273 271 271 269 266 265
265 267 259 257 254 252 255 259 256 267 276 275 270 265 258 251 253 250 250 263 264 264 273 283 288 290 288 293 292 287 286 286 287 284 282 280 279 281 279 281 279 277 276 274
275 275 264 258 252 258 249 252 256 270 278 274 276 270 251 235 237 228 226 239 255 265 280 296 298 299 304 308 308 306 304 301 296 294 293 291 290 286 287 293 288 286 291 281
288 272 260 249 252 252 255 249 253 264 269 271 265 255 250 198 195 196 203 222 248 279 301 318 315 309 307 309 313 314 314 314 311 308 306 302 296 290 286 287 300 309 302 301